Year,Month,Day,Hour,Minute,Value (Times are PST for temperature in C)
2021,06,25,00,00,16.80
2021,06,25,00,01,16.70
2021,06,25,00,02,16.70
2021,06,25,00,03,16.70
2021,06,25,00,04,16.70
2021,06,25,00,05,16.70
2021,06,25,00,06,16.70
2021,06,25,00,07,16.70
2021,06,25,00,08,16.70
2021,06,25,00,09,16.70
2021,06,25,00,10,16.70
2021,06,25,00,11,16.70
2021,06,25,00,12,16.60
2021,06,25,00,13,16.60
2021,06,25,00,14,16.60
2021,06,25,00,15,16.50
2021,06,25,00,16,16.40
2021,06,25,00,17,16.40
2021,06,25,00,18,16.40
2021,06,25,00,19,16.40
2021,06,25,00,20,16.40
2021,06,25,00,21,16.40
2021,06,25,00,22,16.40
2021,06,25,00,23,16.40
2021,06,25,00,24,16.40
2021,06,25,00,25,16.40
2021,06,25,00,26,16.30
2021,06,25,00,27,16.30
2021,06,25,00,28,16.30
2021,06,25,00,29,16.30
2021,06,25,00,30,16.30
2021,06,25,00,31,16.20
2021,06,25,00,32,16.20
2021,06,25,00,33,16.20
2021,06,25,00,34,16.20
2021,06,25,00,35,16.10
2021,06,25,00,36,16.10
2021,06,25,00,37,16.10
2021,06,25,00,38,16.10
2021,06,25,00,39,16.10
2021,06,25,00,40,16.10
2021,06,25,00,41,16.10
2021,06,25,00,42,16.10
2021,06,25,00,43,16.10
2021,06,25,00,44,16.10
2021,06,25,00,45,16.10
2021,06,25,00,46,16.10
2021,06,25,00,47,16.10
2021,06,25,00,48,16.10
2021,06,25,00,49,16.00
2021,06,25,00,50,15.90
2021,06,25,00,51,15.90
2021,06,25,00,52,15.90
2021,06,25,00,53,15.90
2021,06,25,00,54,15.90
2021,06,25,00,55,15.90
2021,06,25,00,56,15.90
2021,06,25,00,57,15.90
2021,06,25,00,58,15.90
2021,06,25,00,59,15.90
2021,06,25,01,00,15.90
2021,06,25,01,01,15.90
2021,06,25,01,02,15.90
2021,06,25,01,03,15.90
2021,06,25,01,04,15.90
2021,06,25,01,05,15.90
2021,06,25,01,06,15.90
2021,06,25,01,07,15.90
2021,06,25,01,08,15.90
2021,06,25,01,09,15.90
2021,06,25,01,10,16.00
2021,06,25,01,11,16.10
2021,06,25,01,12,16.10
2021,06,25,01,13,16.10
2021,06,25,01,14,16.10
2021,06,25,01,15,15.90
2021,06,25,01,16,15.80
2021,06,25,01,17,15.70
2021,06,25,01,18,15.60
2021,06,25,01,19,15.40
2021,06,25,01,20,15.30
2021,06,25,01,21,15.20
2021,06,25,01,22,15.00
2021,06,25,01,23,14.90
2021,06,25,01,24,14.80
2021,06,25,01,25,14.60
2021,06,25,01,26,14.60
2021,06,25,01,27,14.50
2021,06,25,01,28,14.40
2021,06,25,01,29,14.30
2021,06,25,01,30,14.20
2021,06,25,01,31,14.20
2021,06,25,01,32,14.20
2021,06,25,01,33,14.20
2021,06,25,01,34,14.10
2021,06,25,01,35,14.10
2021,06,25,01,36,14.00
2021,06,25,01,37,14.00
2021,06,25,01,38,13.90
2021,06,25,01,39,13.90
2021,06,25,01,40,13.80
2021,06,25,01,41,13.80
2021,06,25,01,42,13.70
2021,06,25,01,43,13.70
2021,06,25,01,44,13.70
2021,06,25,01,45,13.70
2021,06,25,01,46,13.60
2021,06,25,01,47,13.60
2021,06,25,01,48,13.60
2021,06,25,01,49,13.60
2021,06,25,01,50,13.50
2021,06,25,01,51,13.50
2021,06,25,01,52,13.50
2021,06,25,01,53,13.40
2021,06,25,01,54,13.40
2021,06,25,01,55,13.40
2021,06,25,01,56,13.30
2021,06,25,01,57,13.30
2021,06,25,01,58,13.30
2021,06,25,01,59,13.30
2021,06,25,02,00,13.30
2021,06,25,02,01,13.20
2021,06,25,02,02,13.20
2021,06,25,02,03,13.20
2021,06,25,02,04,13.20
2021,06,25,02,05,13.10
2021,06,25,02,06,13.10
2021,06,25,02,07,13.10
2021,06,25,02,08,13.00
2021,06,25,02,09,13.00
2021,06,25,02,10,13.00
2021,06,25,02,11,13.00
2021,06,25,02,12,12.90
2021,06,25,02,13,12.90
2021,06,25,02,14,12.90
2021,06,25,02,15,12.90
2021,06,25,02,16,12.90
2021,06,25,02,17,12.80
2021,06,25,02,18,12.80
2021,06,25,02,19,12.80
2021,06,25,02,20,12.80
2021,06,25,02,21,12.80
2021,06,25,02,22,12.80
2021,06,25,02,23,12.80
2021,06,25,02,24,12.80
2021,06,25,02,25,12.70
2021,06,25,02,26,12.70
2021,06,25,02,27,12.70
2021,06,25,02,28,12.60
2021,06,25,02,29,12.60
2021,06,25,02,30,12.50
2021,06,25,02,31,12.50
2021,06,25,02,32,12.50
2021,06,25,02,33,12.50
2021,06,25,02,34,12.40
2021,06,25,02,35,12.40
2021,06,25,02,36,12.40
2021,06,25,02,37,12.40
2021,06,25,02,38,12.40
2021,06,25,02,39,12.40
2021,06,25,02,40,12.40
2021,06,25,02,41,12.40
2021,06,25,02,42,12.50
2021,06,25,02,43,12.50
2021,06,25,02,44,12.50
2021,06,25,02,45,12.50
2021,06,25,02,46,12.60
2021,06,25,02,47,12.60
2021,06,25,02,48,12.60
2021,06,25,02,49,12.60
2021,06,25,02,50,12.70
2021,06,25,02,51,12.70
2021,06,25,02,52,12.70
2021,06,25,02,53,12.70
2021,06,25,02,54,12.80
2021,06,25,02,55,12.80
2021,06,25,02,56,12.80
2021,06,25,02,57,12.80
2021,06,25,02,58,12.80
2021,06,25,02,59,12.80
2021,06,25,03,00,12.80
2021,06,25,03,01,12.80
2021,06,25,03,02,12.90
2021,06,25,03,03,12.90
2021,06,25,03,04,12.90
2021,06,25,03,05,12.90
2021,06,25,03,06,12.90
2021,06,25,03,07,12.90
2021,06,25,03,08,12.90
2021,06,25,03,09,12.90
2021,06,25,03,10,12.90
2021,06,25,03,11,12.90
2021,06,25,03,12,12.90
2021,06,25,03,13,12.90
2021,06,25,03,14,12.90
2021,06,25,03,15,12.90
2021,06,25,03,16,12.90
2021,06,25,03,17,12.90
2021,06,25,03,18,12.90
2021,06,25,03,19,12.90
2021,06,25,03,20,12.90
2021,06,25,03,21,12.80
2021,06,25,03,22,12.80
2021,06,25,03,23,12.80
2021,06,25,03,24,12.80
2021,06,25,03,25,12.90
2021,06,25,03,26,12.90
2021,06,25,03,27,12.90
2021,06,25,03,28,12.90
2021,06,25,03,29,12.90
2021,06,25,03,30,12.90
2021,06,25,03,31,12.90
2021,06,25,03,32,12.90
2021,06,25,03,33,12.90
2021,06,25,03,34,12.90
2021,06,25,03,35,12.90
2021,06,25,03,36,12.90
2021,06,25,03,37,12.90
2021,06,25,03,38,12.90
2021,06,25,03,39,12.90
2021,06,25,03,40,12.90
2021,06,25,03,41,12.90
2021,06,25,03,42,12.90
2021,06,25,03,43,12.90
2021,06,25,03,44,12.90
2021,06,25,03,45,13.00
2021,06,25,03,46,13.00
2021,06,25,03,47,13.00
2021,06,25,03,48,13.00
2021,06,25,03,49,13.00
2021,06,25,03,50,13.00
2021,06,25,03,51,13.00
2021,06,25,03,52,13.10
2021,06,25,03,53,13.10
2021,06,25,03,54,13.10
2021,06,25,03,55,13.10
2021,06,25,03,56,13.00
2021,06,25,03,57,13.00
2021,06,25,03,58,13.00
2021,06,25,03,59,13.00
2021,06,25,04,00,13.00
2021,06,25,04,01,13.00
2021,06,25,04,02,13.00
2021,06,25,04,03,13.00
2021,06,25,04,04,13.00
2021,06,25,04,05,12.90
2021,06,25,04,06,12.90
2021,06,25,04,07,12.90
2021,06,25,04,08,13.00
2021,06,25,04,09,13.00
2021,06,25,04,10,13.00
2021,06,25,04,11,13.10
2021,06,25,04,12,13.10
2021,06,25,04,13,13.10
2021,06,25,04,14,13.10
2021,06,25,04,15,13.20
2021,06,25,04,16,13.20
2021,06,25,04,17,13.30
2021,06,25,04,18,13.30
2021,06,25,04,19,13.30
2021,06,25,04,20,13.30
2021,06,25,04,21,13.40
2021,06,25,04,22,13.40
2021,06,25,04,23,13.40
2021,06,25,04,24,13.40
2021,06,25,04,25,13.50
2021,06,25,04,26,13.50
2021,06,25,04,27,13.50
2021,06,25,04,28,13.50
2021,06,25,04,29,13.60
2021,06,25,04,30,13.60
2021,06,25,04,31,13.60
2021,06,25,04,32,13.60
2021,06,25,04,33,13.60
2021,06,25,04,34,13.70
2021,06,25,04,35,13.70
2021,06,25,04,36,13.70
2021,06,25,04,37,13.70
2021,06,25,04,38,13.70
2021,06,25,04,39,13.70
2021,06,25,04,40,13.70
2021,06,25,04,41,13.70
2021,06,25,04,42,13.70
2021,06,25,04,43,13.80
2021,06,25,04,44,13.80
2021,06,25,04,45,13.80
2021,06,25,04,46,13.80
2021,06,25,04,47,13.90
2021,06,25,04,48,13.90
2021,06,25,04,49,13.90
2021,06,25,04,50,13.90
2021,06,25,04,51,14.00
2021,06,25,04,52,14.00
2021,06,25,04,53,14.00
2021,06,25,04,54,14.00
2021,06,25,04,55,14.00
2021,06,25,04,56,14.00
2021,06,25,04,57,14.00
2021,06,25,04,58,14.00
2021,06,25,04,59,14.00
2021,06,25,05,00,14.00
2021,06,25,05,01,14.00
2021,06,25,05,02,14.00
2021,06,25,05,03,14.00
2021,06,25,05,04,14.00
2021,06,25,05,05,14.00
2021,06,25,05,06,14.00
2021,06,25,05,07,13.90
2021,06,25,05,08,13.90
2021,06,25,05,09,13.90
2021,06,25,05,10,13.80
2021,06,25,05,11,13.70
2021,06,25,05,12,13.70
2021,06,25,05,13,13.70
2021,06,25,05,14,13.70
2021,06,25,05,15,13.60
2021,06,25,05,16,13.60
2021,06,25,05,17,13.60
2021,06,25,05,18,13.60
2021,06,25,05,19,13.60
2021,06,25,05,20,13.60
2021,06,25,05,21,13.60
2021,06,25,05,22,13.60
2021,06,25,05,23,13.50
2021,06,25,05,24,13.50
2021,06,25,05,25,13.50
2021,06,25,05,26,13.50
2021,06,25,05,27,13.50
2021,06,25,05,28,13.50
2021,06,25,05,29,13.50
2021,06,25,05,30,13.50
2021,06,25,05,31,13.50
2021,06,25,05,32,13.50
2021,06,25,05,33,13.50
2021,06,25,05,34,13.50
2021,06,25,05,35,13.50
2021,06,25,05,36,13.50
2021,06,25,05,37,13.50
2021,06,25,05,38,13.60
2021,06,25,05,39,13.60
2021,06,25,05,40,13.60
2021,06,25,05,41,13.70
2021,06,25,05,42,13.70
2021,06,25,05,43,13.70
2021,06,25,05,44,13.70
2021,06,25,05,45,13.70
2021,06,25,05,46,13.70
2021,06,25,05,47,13.70
2021,06,25,05,48,13.70
2021,06,25,05,49,13.80
2021,06,25,05,50,13.80
2021,06,25,05,51,13.80
2021,06,25,05,52,13.80
2021,06,25,05,53,13.80
2021,06,25,05,54,13.80
2021,06,25,05,55,13.90
2021,06,25,05,56,13.90
2021,06,25,05,57,13.90
2021,06,25,05,58,13.90
2021,06,25,05,59,14.00
2021,06,25,06,00,14.00
2021,06,25,06,01,14.00
2021,06,25,06,02,14.00
2021,06,25,06,03,14.10
2021,06,25,06,04,14.10
2021,06,25,06,05,14.10
2021,06,25,06,06,14.20
2021,06,25,06,07,14.20
2021,06,25,06,08,14.20
2021,06,25,06,09,14.20
2021,06,25,06,10,14.30
2021,06,25,06,11,14.30
2021,06,25,06,12,14.40
2021,06,25,06,13,14.40
2021,06,25,06,14,14.40
2021,06,25,06,15,14.50
2021,06,25,06,16,14.50
2021,06,25,06,17,14.50
2021,06,25,06,18,14.60
2021,06,25,06,19,14.60
2021,06,25,06,20,14.70
2021,06,25,06,21,14.70
2021,06,25,06,22,14.70
2021,06,25,06,23,14.80
2021,06,25,06,24,14.80
2021,06,25,06,25,14.80
2021,06,25,06,26,14.80
2021,06,25,06,27,14.90
2021,06,25,06,28,15.00
2021,06,25,06,29,15.00
2021,06,25,06,30,15.10
2021,06,25,06,31,15.10
2021,06,25,06,32,15.10
2021,06,25,06,33,15.20
2021,06,25,06,34,15.20
2021,06,25,06,35,15.30
2021,06,25,06,36,15.30
2021,06,25,06,37,15.30
2021,06,25,06,38,15.40
2021,06,25,06,39,15.50
2021,06,25,06,40,15.50
2021,06,25,06,41,15.60
2021,06,25,06,42,15.60
2021,06,25,06,43,15.70
2021,06,25,06,44,15.80
2021,06,25,06,45,15.80
2021,06,25,06,46,15.80
2021,06,25,06,47,15.90
2021,06,25,06,48,15.90
2021,06,25,06,49,16.00
2021,06,25,06,50,16.10
2021,06,25,06,51,16.10
2021,06,25,06,52,16.20
2021,06,25,06,53,16.20
2021,06,25,06,54,16.30
2021,06,25,06,55,16.30
2021,06,25,06,56,16.40
2021,06,25,06,57,16.40
2021,06,25,06,58,16.40
2021,06,25,06,59,16.50
2021,06,25,07,00,16.60
2021,06,25,07,01,16.70
2021,06,25,07,02,16.70
2021,06,25,07,03,16.80
2021,06,25,07,04,16.80
2021,06,25,07,05,16.90
2021,06,25,07,06,17.00
2021,06,25,07,07,17.00
2021,06,25,07,08,17.10
2021,06,25,07,09,17.10
2021,06,25,07,10,17.20
2021,06,25,07,11,17.20
2021,06,25,07,12,17.30
2021,06,25,07,13,17.30
2021,06,25,07,14,17.40
2021,06,25,07,15,17.50
2021,06,25,07,16,17.50
2021,06,25,07,17,17.60
2021,06,25,07,18,17.70
2021,06,25,07,19,17.70
2021,06,25,07,20,17.80
2021,06,25,07,21,17.80
2021,06,25,07,22,17.90
2021,06,25,07,23,17.90
2021,06,25,07,24,17.90
2021,06,25,07,25,18.00
2021,06,25,07,26,18.10
2021,06,25,07,27,18.20
2021,06,25,07,28,18.30
2021,06,25,07,29,18.40
2021,06,25,07,30,18.50
2021,06,25,07,31,18.50
2021,06,25,07,32,18.60
2021,06,25,07,33,18.60
2021,06,25,07,34,18.70
2021,06,25,07,35,18.80
2021,06,25,07,36,18.80
2021,06,25,07,37,18.90
2021,06,25,07,38,18.90
2021,06,25,07,39,18.90
2021,06,25,07,40,18.90
2021,06,25,07,41,19.00
2021,06,25,07,42,19.10
2021,06,25,07,43,19.10
2021,06,25,07,44,19.10
2021,06,25,07,45,19.10
2021,06,25,07,46,19.20
2021,06,25,07,47,19.20
2021,06,25,07,48,19.30
2021,06,25,07,49,19.40
2021,06,25,07,50,19.40
2021,06,25,07,51,19.50
2021,06,25,07,52,19.60
2021,06,25,07,53,19.60
2021,06,25,07,54,19.60
2021,06,25,07,55,19.70
2021,06,25,07,56,19.80
2021,06,25,07,57,19.90
2021,06,25,07,58,19.90
2021,06,25,07,59,19.90
2021,06,25,08,00,19.90
2021,06,25,08,01,20.00
2021,06,25,08,02,20.10
2021,06,25,08,03,20.20
2021,06,25,08,04,20.20
2021,06,25,08,05,20.40
2021,06,25,08,06,20.40
2021,06,25,08,07,20.50
2021,06,25,08,08,20.60
2021,06,25,08,09,20.70
2021,06,25,08,10,20.80
2021,06,25,08,11,20.90
2021,06,25,08,12,21.10
2021,06,25,08,13,21.20
2021,06,25,08,14,21.30
2021,06,25,08,15,21.30
2021,06,25,08,16,21.30
2021,06,25,08,17,21.30
2021,06,25,08,18,21.30
2021,06,25,08,19,21.30
2021,06,25,08,20,21.30
2021,06,25,08,21,21.20
2021,06,25,08,22,21.00
2021,06,25,08,23,20.90
2021,06,25,08,24,20.80
2021,06,25,08,25,20.70
2021,06,25,08,26,20.60
2021,06,25,08,27,20.60
2021,06,25,08,28,20.60
2021,06,25,08,29,20.50
2021,06,25,08,30,20.50
2021,06,25,08,31,20.50
2021,06,25,08,32,20.60
2021,06,25,08,33,20.70
2021,06,25,08,34,20.70
2021,06,25,08,35,20.80
2021,06,25,08,36,20.80
2021,06,25,08,37,20.90
2021,06,25,08,38,20.90
2021,06,25,08,39,21.00
2021,06,25,08,40,21.10
2021,06,25,08,41,21.10
2021,06,25,08,42,21.20
2021,06,25,08,43,21.30
2021,06,25,08,44,21.30
2021,06,25,08,45,21.40
2021,06,25,08,46,21.50
2021,06,25,08,47,21.60
2021,06,25,08,48,21.60
2021,06,25,08,49,21.60
2021,06,25,08,50,21.60
2021,06,25,08,51,21.60
2021,06,25,08,52,21.60
2021,06,25,08,53,21.60
2021,06,25,08,54,21.60
2021,06,25,08,55,21.60
2021,06,25,08,56,21.60
2021,06,25,08,57,21.60
2021,06,25,08,58,21.70
2021,06,25,08,59,21.80
2021,06,25,09,00,21.90
2021,06,25,09,01,22.00
2021,06,25,09,02,22.10
2021,06,25,09,03,22.20
2021,06,25,09,04,22.30
2021,06,25,09,05,22.40
2021,06,25,09,06,22.50
2021,06,25,09,07,22.60
2021,06,25,09,08,22.60
2021,06,25,09,09,22.70
2021,06,25,09,10,22.80
2021,06,25,09,11,22.80
2021,06,25,09,12,22.90
2021,06,25,09,13,22.90
2021,06,25,09,14,22.90
2021,06,25,09,15,22.90
2021,06,25,09,16,23.00
2021,06,25,09,17,23.10
2021,06,25,09,18,23.10
2021,06,25,09,19,23.10
2021,06,25,09,20,23.10
2021,06,25,09,21,23.10
2021,06,25,09,22,23.10
2021,06,25,09,23,23.20
2021,06,25,09,24,23.20
2021,06,25,09,25,23.20
2021,06,25,09,26,23.20
2021,06,25,09,27,23.20
2021,06,25,09,28,23.20
2021,06,25,09,29,23.30
2021,06,25,09,30,23.30
2021,06,25,09,31,23.30
2021,06,25,09,32,23.30
2021,06,25,09,33,23.40
2021,06,25,09,34,23.50
2021,06,25,09,35,23.60
2021,06,25,09,36,23.60
2021,06,25,09,37,23.70
2021,06,25,09,38,23.80
2021,06,25,09,39,23.90
2021,06,25,09,40,23.90
2021,06,25,09,41,24.00
2021,06,25,09,42,24.10
2021,06,25,09,43,24.20
2021,06,25,09,44,24.30
2021,06,25,09,45,24.40
2021,06,25,09,46,24.50
2021,06,25,09,47,24.50
2021,06,25,09,48,24.50
2021,06,25,09,49,24.60
2021,06,25,09,50,24.70
2021,06,25,09,51,24.70
2021,06,25,09,52,24.70
2021,06,25,09,53,24.70
2021,06,25,09,54,24.70
2021,06,25,09,55,24.70
2021,06,25,09,56,24.80
2021,06,25,09,57,24.80
2021,06,25,09,58,24.80
2021,06,25,09,59,24.90
2021,06,25,10,00,24.90
2021,06,25,10,01,24.90
2021,06,25,10,02,24.90
2021,06,25,10,03,24.90
2021,06,25,10,04,24.80
2021,06,25,10,05,24.80
2021,06,25,10,06,24.80
2021,06,25,10,07,24.80
2021,06,25,10,08,24.90
2021,06,25,10,09,24.90
2021,06,25,10,10,24.90
2021,06,25,10,11,25.00
2021,06,25,10,12,25.10
2021,06,25,10,13,25.20
2021,06,25,10,14,25.30
2021,06,25,10,15,25.40
2021,06,25,10,16,25.40
2021,06,25,10,17,25.40
2021,06,25,10,18,25.40
2021,06,25,10,19,25.40
2021,06,25,10,20,25.40
2021,06,25,10,21,25.40
2021,06,25,10,22,25.40
2021,06,25,10,23,25.30
2021,06,25,10,24,25.20
2021,06,25,10,25,25.10
2021,06,25,10,26,25.10
2021,06,25,10,27,25.10
2021,06,25,10,28,25.10
2021,06,25,10,29,25.10
2021,06,25,10,30,25.10
2021,06,25,10,31,25.00
2021,06,25,10,32,25.00
2021,06,25,10,33,25.00
2021,06,25,10,34,25.10
2021,06,25,10,35,25.20
2021,06,25,10,36,25.30
2021,06,25,10,37,25.40
2021,06,25,10,38,25.40
2021,06,25,10,39,25.40
2021,06,25,10,40,25.30
2021,06,25,10,41,25.40
2021,06,25,10,42,25.50
2021,06,25,10,43,25.60
2021,06,25,10,44,25.60
2021,06,25,10,45,25.70
2021,06,25,10,46,25.80
2021,06,25,10,47,25.80
2021,06,25,10,48,25.90
2021,06,25,10,49,25.90
2021,06,25,10,50,26.00
2021,06,25,10,51,26.10
2021,06,25,10,52,26.10
2021,06,25,10,53,26.20
2021,06,25,10,54,26.20
2021,06,25,10,55,26.30
2021,06,25,10,56,26.40
2021,06,25,10,57,26.50
2021,06,25,10,58,26.60
2021,06,25,10,59,26.60
2021,06,25,11,00,26.60
2021,06,25,11,01,26.60
2021,06,25,11,02,26.60
2021,06,25,11,03,26.60
2021,06,25,11,04,26.60
2021,06,25,11,05,26.40
2021,06,25,11,06,26.40
2021,06,25,11,07,26.40
2021,06,25,11,08,26.40
2021,06,25,11,09,26.50
2021,06,25,11,10,26.50
2021,06,25,11,11,26.40
2021,06,25,11,12,26.30
2021,06,25,11,13,26.30
2021,06,25,11,14,26.30
2021,06,25,11,15,26.20
2021,06,25,11,16,26.20
2021,06,25,11,17,26.30
2021,06,25,11,18,26.40
2021,06,25,11,19,26.50
2021,06,25,11,20,26.60
2021,06,25,11,21,26.60
2021,06,25,11,22,26.60
2021,06,25,11,23,26.60
2021,06,25,11,24,26.60
2021,06,25,11,25,26.60
2021,06,25,11,26,26.60
2021,06,25,11,27,26.60
2021,06,25,11,28,26.60
2021,06,25,11,29,26.60
2021,06,25,11,30,26.60
2021,06,25,11,31,26.60
2021,06,25,11,32,26.60
2021,06,25,11,33,26.60
2021,06,25,11,34,26.60
2021,06,25,11,35,26.60
2021,06,25,11,36,26.70
2021,06,25,11,37,26.80
2021,06,25,11,38,26.90
2021,06,25,11,39,26.90
2021,06,25,11,40,26.80
2021,06,25,11,41,26.80
2021,06,25,11,42,26.80
2021,06,25,11,43,26.60
2021,06,25,11,44,26.60
2021,06,25,11,45,26.60
2021,06,25,11,46,26.60
2021,06,25,11,47,26.60
2021,06,25,11,48,26.70
2021,06,25,11,49,26.70
2021,06,25,11,50,26.80
2021,06,25,11,51,26.90
2021,06,25,11,52,26.90
2021,06,25,11,53,26.90
2021,06,25,11,54,26.90
2021,06,25,11,55,26.80
2021,06,25,11,56,26.70
2021,06,25,11,57,26.70
2021,06,25,11,58,26.70
2021,06,25,11,59,26.70
2021,06,25,12,00,26.80
2021,06,25,12,01,26.90
2021,06,25,12,02,27.10
2021,06,25,12,03,27.20
2021,06,25,12,04,27.40
2021,06,25,12,05,27.50
2021,06,25,12,06,27.60
2021,06,25,12,07,27.60
2021,06,25,12,08,27.70
2021,06,25,12,09,27.80
2021,06,25,12,10,27.80
2021,06,25,12,11,27.90
2021,06,25,12,12,27.90
2021,06,25,12,13,28.00
2021,06,25,12,14,28.00
2021,06,25,12,15,28.10
2021,06,25,12,16,28.10
2021,06,25,12,17,28.20
2021,06,25,12,18,28.30
2021,06,25,12,19,28.30
2021,06,25,12,20,28.30
2021,06,25,12,21,28.20
2021,06,25,12,22,27.90
2021,06,25,12,23,27.80
2021,06,25,12,24,27.80
2021,06,25,12,25,27.80
2021,06,25,12,26,27.80
2021,06,25,12,27,27.70
2021,06,25,12,28,27.60
2021,06,25,12,29,27.50
2021,06,25,12,30,27.30
2021,06,25,12,31,27.30
2021,06,25,12,32,27.30
2021,06,25,12,33,27.20
2021,06,25,12,34,27.20
2021,06,25,12,35,27.30
2021,06,25,12,36,27.30
2021,06,25,12,37,27.40
2021,06,25,12,38,27.50
2021,06,25,12,39,27.50
2021,06,25,12,40,27.40
2021,06,25,12,41,27.30
2021,06,25,12,42,27.30
2021,06,25,12,43,27.30
2021,06,25,12,44,27.30
2021,06,25,12,45,27.30
2021,06,25,12,46,27.40
2021,06,25,12,47,27.60
2021,06,25,12,48,27.70
2021,06,25,12,49,27.70
2021,06,25,12,50,27.80
2021,06,25,12,51,27.90
2021,06,25,12,52,28.00
2021,06,25,12,53,28.10
2021,06,25,12,54,28.10
2021,06,25,12,55,28.20
2021,06,25,12,56,28.30
2021,06,25,12,57,28.40
2021,06,25,12,58,28.50
2021,06,25,12,59,28.70
2021,06,25,13,00,28.80
2021,06,25,13,01,28.90
2021,06,25,13,02,29.00
2021,06,25,13,03,29.10
2021,06,25,13,04,29.10
2021,06,25,13,05,29.20
2021,06,25,13,06,29.20
2021,06,25,13,07,29.20
2021,06,25,13,08,29.30
2021,06,25,13,09,29.30
2021,06,25,13,10,29.40
2021,06,25,13,11,29.40
2021,06,25,13,12,29.30
2021,06,25,13,13,29.20
2021,06,25,13,14,29.10
2021,06,25,13,15,29.10
2021,06,25,13,16,29.10
2021,06,25,13,17,29.10
2021,06,25,13,18,29.00
2021,06,25,13,19,28.90
2021,06,25,13,20,28.90
2021,06,25,13,21,28.90
2021,06,25,13,22,29.00
2021,06,25,13,23,29.10
2021,06,25,13,24,29.20
2021,06,25,13,25,29.20
2021,06,25,13,26,29.30
2021,06,25,13,27,29.40
2021,06,25,13,28,29.40
2021,06,25,13,29,29.40
2021,06,25,13,30,29.40
2021,06,25,13,31,29.10
2021,06,25,13,32,29.00
2021,06,25,13,33,28.80
2021,06,25,13,34,28.70
2021,06,25,13,35,28.70
2021,06,25,13,36,28.70
2021,06,25,13,37,28.70
2021,06,25,13,38,28.80
2021,06,25,13,39,28.90
2021,06,25,13,40,29.10
2021,06,25,13,41,29.30
2021,06,25,13,42,29.50
2021,06,25,13,43,29.60
2021,06,25,13,44,29.70
2021,06,25,13,45,29.80
2021,06,25,13,46,29.80
2021,06,25,13,47,29.80
2021,06,25,13,48,29.80
2021,06,25,13,49,29.70
2021,06,25,13,50,29.70
2021,06,25,13,51,29.80
2021,06,25,13,52,29.80
2021,06,25,13,53,29.80
2021,06,25,13,54,29.80
2021,06,25,13,55,29.80
2021,06,25,13,56,29.80
2021,06,25,13,57,29.70
2021,06,25,13,58,29.70
2021,06,25,13,59,29.70
2021,06,25,14,00,29.70
2021,06,25,14,01,29.70
2021,06,25,14,02,29.70
2021,06,25,14,03,29.60
2021,06,25,14,04,29.50
2021,06,25,14,05,29.50
2021,06,25,14,06,29.70
2021,06,25,14,07,29.80
2021,06,25,14,08,29.80
2021,06,25,14,09,30.00
2021,06,25,14,10,30.10
2021,06,25,14,11,30.20
2021,06,25,14,12,30.20
2021,06,25,14,13,30.20
2021,06,25,14,14,30.20
2021,06,25,14,15,30.20
2021,06,25,14,16,30.20
2021,06,25,14,17,30.10
2021,06,25,14,18,30.10
2021,06,25,14,19,29.90
2021,06,25,14,20,29.90
2021,06,25,14,21,29.90
2021,06,25,14,22,29.90
2021,06,25,14,23,29.90
2021,06,25,14,24,29.90
2021,06,25,14,25,29.90
2021,06,25,14,26,29.90
2021,06,25,14,27,29.90
2021,06,25,14,28,29.90
2021,06,25,14,29,29.90
2021,06,25,14,30,29.90
2021,06,25,14,31,29.90
2021,06,25,14,32,29.90
2021,06,25,14,33,29.90
2021,06,25,14,34,29.90
2021,06,25,14,35,30.00
2021,06,25,14,36,30.10
2021,06,25,14,37,30.10
2021,06,25,14,38,30.20
2021,06,25,14,39,30.30
2021,06,25,14,40,30.30
2021,06,25,14,41,30.40
2021,06,25,14,42,30.50
2021,06,25,14,43,30.60
2021,06,25,14,44,30.80
2021,06,25,14,45,30.90
2021,06,25,14,46,30.90
2021,06,25,14,47,30.90
2021,06,25,14,48,31.00
2021,06,25,14,49,31.00
2021,06,25,14,50,31.00
2021,06,25,14,51,31.00
2021,06,25,14,52,31.00
2021,06,25,14,53,30.90
2021,06,25,14,54,30.90
2021,06,25,14,55,31.00
2021,06,25,14,56,31.00
2021,06,25,14,57,31.10
2021,06,25,14,58,31.20
2021,06,25,14,59,31.20
2021,06,25,15,00,31.20
2021,06,25,15,01,31.20
2021,06,25,15,02,31.30
2021,06,25,15,03,31.40
2021,06,25,15,04,31.40
2021,06,25,15,05,31.40
2021,06,25,15,06,31.30
2021,06,25,15,07,31.30
2021,06,25,15,08,31.10
2021,06,25,15,09,31.10
2021,06,25,15,10,31.20
2021,06,25,15,11,31.30
2021,06,25,15,12,31.30
2021,06,25,15,13,31.40
2021,06,25,15,14,31.50
2021,06,25,15,15,31.60
2021,06,25,15,16,31.70
2021,06,25,15,17,31.60
2021,06,25,15,18,31.50
2021,06,25,15,19,31.20
2021,06,25,15,20,31.10
2021,06,25,15,21,30.90
2021,06,25,15,22,30.60
2021,06,25,15,23,30.20
2021,06,25,15,24,30.10
2021,06,25,15,25,30.20
2021,06,25,15,26,30.20
2021,06,25,15,27,30.30
2021,06,25,15,28,30.30
2021,06,25,15,29,30.10
2021,06,25,15,30,30.10
2021,06,25,15,31,30.10
2021,06,25,15,32,30.30
2021,06,25,15,33,30.50
2021,06,25,15,34,30.70
2021,06,25,15,35,30.90
2021,06,25,15,36,31.00
2021,06,25,15,37,31.20
2021,06,25,15,38,31.30
2021,06,25,15,39,31.30
2021,06,25,15,40,31.30
2021,06,25,15,41,31.30
2021,06,25,15,42,31.30
2021,06,25,15,43,31.40
2021,06,25,15,44,31.60
2021,06,25,15,45,31.70
2021,06,25,15,46,31.80
2021,06,25,15,47,31.80
2021,06,25,15,48,31.70
2021,06,25,15,49,31.60
2021,06,25,15,50,31.40
2021,06,25,15,51,31.10
2021,06,25,15,52,31.10
2021,06,25,15,53,31.10
2021,06,25,15,54,31.10
2021,06,25,15,55,31.10
2021,06,25,15,56,30.90
2021,06,25,15,57,30.90
2021,06,25,15,58,30.80
2021,06,25,15,59,30.70
2021,06,25,16,00,30.70
2021,06,25,16,01,30.80
2021,06,25,16,02,30.80
2021,06,25,16,03,30.80
2021,06,25,16,04,30.90
2021,06,25,16,05,31.10
2021,06,25,16,06,31.10
2021,06,25,16,07,31.10
2021,06,25,16,08,31.10
2021,06,25,16,09,31.10
2021,06,25,16,10,31.10
2021,06,25,16,11,31.10
2021,06,25,16,12,31.20
2021,06,25,16,13,31.30
2021,06,25,16,14,31.40
2021,06,25,16,15,31.60
2021,06,25,16,16,31.80
2021,06,25,16,17,32.10
2021,06,25,16,18,32.20
2021,06,25,16,19,32.20
2021,06,25,16,20,32.40
2021,06,25,16,21,32.40
2021,06,25,16,22,32.40
2021,06,25,16,23,32.40
2021,06,25,16,24,32.30
2021,06,25,16,25,32.30
2021,06,25,16,26,32.30
2021,06,25,16,27,32.40
2021,06,25,16,28,32.30
2021,06,25,16,29,32.30
2021,06,25,16,30,32.40
2021,06,25,16,31,32.40
2021,06,25,16,32,32.40
2021,06,25,16,33,32.40
2021,06,25,16,34,32.40
2021,06,25,16,35,32.40
2021,06,25,16,36,32.50
2021,06,25,16,37,32.30
2021,06,25,16,38,32.20
2021,06,25,16,39,32.20
2021,06,25,16,40,32.30
2021,06,25,16,41,32.30
2021,06,25,16,42,32.30
2021,06,25,16,43,32.30
2021,06,25,16,44,32.30
2021,06,25,16,45,32.30
2021,06,25,16,46,32.30
2021,06,25,16,47,32.30
2021,06,25,16,48,32.40
2021,06,25,16,49,32.40
2021,06,25,16,50,32.40
2021,06,25,16,51,32.40
2021,06,25,16,52,32.40
2021,06,25,16,53,32.30
2021,06,25,16,54,32.30
2021,06,25,16,55,32.30
2021,06,25,16,56,32.20
2021,06,25,16,57,32.20
2021,06,25,16,58,32.20
2021,06,25,16,59,32.10
2021,06,25,17,00,31.90
2021,06,25,17,01,31.80
2021,06,25,17,02,31.80
2021,06,25,17,03,31.80
2021,06,25,17,04,31.80
2021,06,25,17,05,31.80
2021,06,25,17,06,31.90
2021,06,25,17,07,32.00
2021,06,25,17,08,31.90
2021,06,25,17,09,31.90
2021,06,25,17,10,31.70
2021,06,25,17,11,31.70
2021,06,25,17,12,31.50
2021,06,25,17,13,31.40
2021,06,25,17,14,31.50
2021,06,25,17,15,31.60
2021,06,25,17,16,31.60
2021,06,25,17,17,31.80
2021,06,25,17,18,31.90
2021,06,25,17,19,32.10